Location: Caltech
(34.1382°N, 118.1253°W)
Time: 03:17:29
(UTC-08:00)

KITSAT 1 - Visible Passes

Search period start: 27 February 2017 00:00
Search period end: 09 March 2017 00:00
Orbit: 1313 x 1317 km, 66.1° (Epoch: 25 February)

Date Brightness Start Highest point End Pass type
(mag) Time Alt. Az. Time Alt. Az. Time Alt. Az.
27 Feb 11.5 02:39:23 34° E 02:39:23 34° E 02:44:47 10° NE visible
27 Feb 10.5 04:31:24 40° W 04:32:45 43° NW 04:40:23 10° NNE visible
28 Feb 11.0 02:55:32 46° ENE 02:55:32 46° ENE 03:01:16 10° NE visible
28 Feb 11.0 04:47:32 28° WNW 04:49:09 30° NW 04:56:03 10° N visible
01 Mar 10.7 03:11:33 54° NNE 03:11:33 54° NNE 03:17:29 10° NNE visible
01 Mar 11.4 05:03:33 19° WNW 05:05:44 21° NW 05:11:31 10° N visible
02 Mar 12.5 01:35:31 14° ENE 01:35:31 14° ENE 01:36:42 10° NE visible
02 Mar 10.6 03:27:31 50° N 03:27:31 50° N 03:33:30 10° NNE visible
02 Mar 11.8 05:19:30 12° WNW 05:22:29 14° NW 05:26:34 10° N visible
03 Mar 12.2 01:51:24 19° NE 01:51:24 19° NE 01:53:40 10° NE visible
03 Mar 10.9 03:43:23 40° NNW 03:43:23 40° NNW 03:49:21 10° NNE visible
04 Mar 11.9 02:07:13 25° NE 02:07:13 25° NE 02:10:11 10° NE visible
04 Mar 11.2 03:59:11 30° NW 03:59:11 30° NW 04:05:03 10° N visible
05 Mar 11.7 02:22:59 29° NNE 02:22:59 29° NNE 02:26:25 10° NNE visible
05 Mar 11.5 04:14:57 21° NW 04:14:57 21° NW 04:20:31 10° N visible
06 Mar 11.5 02:38:41 31° NNE 02:38:41 31° NNE 02:42:27 10° NNE visible
06 Mar 11.8 04:30:40 15° NW 04:31:22 15° NW 04:35:37 10° N visible
07 Mar 12.7 01:02:23 11° NE 01:02:23 11° NE 01:02:34 10° NE visible
07 Mar 11.5 02:54:22 29° N 02:54:22 29° N 02:58:19 10° NNE visible
08 Mar 12.4 01:18:01 15° NE 01:18:01 15° NE 01:19:06 10° NE visible
08 Mar 11.6 03:09:59 25° NNW 03:09:59 25° NNW 03:14:01 10° N visible
